New Delhi, India

12:37 AM IST on February 11, 2016 (GMT +0530)
Indira Gandhi International

Weather History for VIDP - January, 2013

Change the Weather History Date:

Saturday, January 12, 2013

  Actual Average Record
Temperature  
Mean Temperature 60 °F -  
Max Temperature 75 °F 68 °F 78 °F (2016)
Min Temperature 44 °F 47 °F 44 °F (2015)
Degree Days  
Heating Degree Days 6    
Growing Degree Days 10 (Base 50)    
Moisture  
Dew Point 48 °F    
Average Humidity 70    
Maximum Humidity 100    
Minimum Humidity 34    
Precipitation  
Precipitation 0.00 in - - ()
Sea Level Pressure  
Sea Level Pressure 29.99 in    
Wind  
Wind Speed 3 mph ()    
Max Wind Speed 9 mph    
Max Gust Speed -    
Visibility 1.0 miles    
Events Fog    
Averages and records for this station are not official NWS values.
T = Trace of Precipitation, MM = Missing Value Source: Averaged Metar Reports

Daily Weather History Graph

Daily Weather History Graph

Search for Another Location

Airport or City:

Trip Planner

Search our weather history database for the weather conditions in past years. The results will help you decide how hot, cold, wet, or windy it might be!

Date:

Astronomy

Jan. 12, 2013 Rise Set
Actual Time 7:15 AM IST 5:44 PM IST
Civil Twilight 6:49 AM IST 6:09 PM IST
Nautical Twilight 6:20 AM IST 6:38 PM IST
Astronomical Twilight 5:52 AM IST 7:07 PM IST
Moon 7:19 AM IST (1/12) 6:32 PM IST (1/12)
Length of Visible Light 11h 19m
Length of Day
10h 28m
New Moon, 0% of the Moon is Illuminated
Jan 12
New Moon
Jan 19
First Quarter
Jan 27
Full
Feb 3
Last Quarter
Feb 10
New

Hourly Weather History & Observations

Time (IST) Temp. Windchill Dew Point Humidity Pressure Visibility Wind Dir Wind Speed Gust Speed Precip Events Conditions
12:00 AM 55.4 °F - 48.2 °F 77% 30.01 in 1.0 mi Calm Calm - N/A   Mist
12:30 AM 55.4 °F - 48.2 °F 77% 30.01 in 1.0 mi Calm Calm - N/A   Mist
1:00 AM 55.4 °F - 48.2 °F 77% 30.01 in 1.0 mi Calm Calm - N/A   Mist
1:30 AM 55.4 °F - 50.0 °F 82% 30.01 in 1.0 mi Calm Calm - N/A   Mist
2:00 AM 53.6 °F - 50.0 °F 88% 30.01 in 1.0 mi Calm Calm - N/A   Mist
2:30 AM 53.6 °F - 50.0 °F 88% 30.01 in 1.0 mi East 3.5 mph - N/A   Mist
3:30 AM 50.0 °F - 50.0 °F 100% 30.01 in 0.8 mi ESE 3.5 mph - N/A   Mist
4:00 AM 50.0 °F - 50.0 °F 100% 30.01 in 0.7 mi Calm Calm - N/A   Mist
4:30 AM 48.2 °F - 48.2 °F 100% 30.01 in 0.7 mi Calm Calm - N/A   Mist
5:00 AM 48.2 °F - 48.2 °F 100% 29.98 in 0.7 mi ESE 4.6 mph - N/A   Mist
5:30 AM 46.4 °F 44.3 °F 46.4 °F 100% 30.01 in 0.7 mi WSW 4.6 mph - N/A   Mist
6:00 AM 46.4 °F - 46.4 °F 100% 30.01 in 0.6 mi Calm Calm - N/A   Mist
7:00 AM 44.6 °F 43.1 °F 44.6 °F 100% 30.04 in 0.5 mi North 3.5 mph - N/A Fog Shallow Fog
7:30 AM 46.4 °F - 46.4 °F 100% 30.04 in 0.4 mi Calm Calm - N/A Fog Shallow Fog
8:00 AM 48.2 °F - 46.4 °F 93% 30.04 in 0.4 mi Calm Calm - N/A Fog Shallow Fog
8:30 AM 50.0 °F - 48.2 °F 94% 30.06 in 0.4 mi Calm Calm - N/A Fog Shallow Fog
9:00 AM 57.2 °F - 46.4 °F 67% 30.06 in 0.4 mi Calm Calm - N/A Fog Shallow Fog
10:00 AM 62.6 °F - 46.4 °F 55% 30.06 in 0.9 mi SE 4.6 mph - N/A   Smoke
11:00 AM 66.2 °F - 46.4 °F 49% 30.06 in 1.3 mi South 4.6 mph - N/A   Smoke
12:00 PM 71.6 °F - 44.6 °F 38% 30.04 in 1.6 mi SSE 5.8 mph - N/A   Smoke
12:30 PM 73.4 °F - 44.6 °F 36% 30.01 in 1.6 mi South 4.6 mph - N/A   Smoke
1:00 PM 75.2 °F - 44.6 °F 34% 30.01 in 1.6 mi SSE 5.8 mph - N/A   Smoke
1:30 PM 75.2 °F - 44.6 °F 34% 29.98 in 1.6 mi South 4.6 mph - N/A   Smoke
2:00 PM 75.2 °F - 44.6 °F 34% 29.98 in 1.6 mi SSE 6.9 mph - N/A   Smoke
3:00 PM 75.2 °F - 46.4 °F 36% 29.95 in 1.7 mi SE 6.9 mph - N/A   Haze
3:30 PM 75.2 °F - 44.6 °F 34% 29.95 in 1.6 mi ESE 9.2 mph - N/A   Haze
4:00 PM 69.8 °F - 48.2 °F 46% 29.92 in 1.9 mi NNE 5.8 mph - N/A   Smoke
4:30 PM 68.0 °F - 48.2 °F 49% 29.92 in 1.9 mi NE 4.6 mph - N/A   Smoke
5:00 PM 71.6 °F - 46.4 °F 41% 29.95 in 1.4 mi SE 9.2 mph - N/A   Haze
5:30 PM 69.8 °F - 48.2 °F 46% 29.95 in 1.4 mi ESE 9.2 mph - N/A   Haze
6:00 PM 66.2 °F - 48.2 °F 52% 29.95 in 1.3 mi East 5.8 mph - N/A   Haze
6:30 PM 62.6 °F - 48.2 °F 59% 29.95 in 1.3 mi East 5.8 mph - N/A   Haze
7:00 PM 62.6 °F - 50.0 °F 63% 29.95 in 1.0 mi East 5.8 mph - N/A   Smoke
8:00 PM 60.8 °F - 50.0 °F 68% 29.98 in 0.9 mi East 5.8 mph - N/A   Smoke
8:30 PM 60.8 °F - 50.0 °F 68% 29.98 in 0.8 mi East 8.1 mph - N/A   Smoke
9:00 PM 60.8 °F - 53.6 °F 77% 29.98 in 0.7 mi ESE 8.1 mph - N/A   Partly Cloudy
9:30 PM 60.8 °F - 53.6 °F 77% 29.95 in 0.7 mi ESE 8.1 mph - N/A   Partly Cloudy
10:00 PM 60.8 °F - 55.4 °F 82% 29.95 in 0.6 mi ESE 9.2 mph - N/A   Partly Cloudy
10:30 PM 60.8 °F - 53.6 °F 77% 29.95 in 0.6 mi ESE 6.9 mph - N/A   Partly Cloudy
11:00 PM 59.0 °F - 53.6 °F 82% 29.95 in 0.6 mi ESE 6.9 mph - N/A   Partly Cloudy
11:30 PM 59.0 °F - 55.4 °F 88% 29.95 in 0.6 mi ESE 6.9 mph - N/A   Partly Cloudy